M I D A S
Marine Information and Data Acquisition System
Tripno 1336 of the Zeeleeuw from 2007-06-14 07:15:33 to 2007-06-14 17:00:00
Back to CruiseResearch ActivitiesStationsMapUnderway DataData graphs

EquipmentUnitsComments
TimeDGPSUTC
LatitudeDGPSDM.mWGS84
LongitudeDGPSDM.mWGS84
SpeedMeteo Stationm/sRelative wind speed
DirectionMeteo StationdegRelative wind direction
TemperatureMeteo Stationdeg CelciusAir temperature
PressureMeteo StationPaAtmospheric pressure
HumidityMeteo Station%Relative humidity
Missing or incorrect values are displayed as -999
Metereological data collected by the RV Zeeleeuw from 2007-06-14 07:06:23 to 2007-06-14 15:25:06
Time Latitude Longitude Speed Direction Temperature Pressure Humidity
2007-06-14 07:07 51°13.6 2°56.095 -999 -999 -999 -999 -999
2007-06-14 07:08 51°13.601 2°56.094 -999 -999 -999 -999 -999
2007-06-14 07:09 51°13.601 2°56.094 -999 -999 -999 -999 -999
2007-06-14 07:10 51°13.599 2°56.093 -999 -999 -999 -999 -999
2007-06-14 07:11 51°13.601 2°56.094 -999 -999 -999 -999 -999
2007-06-14 07:12 51°13.601 2°56.094 -999 -999 -999 -999 -999
2007-06-14 07:13 51°13.602 2°56.095 -999 -999 -999 -999 -999
2007-06-14 07:14 51°13.602 2°56.095 -999 -999 -999 -999 -999
2007-06-14 07:15 51°13.601 2°56.095 -999 -999 -999 -999 -999
2007-06-14 07:16 51°13.598 2°56.094 -999 -999 -999 -999 -999
2007-06-14 07:17 51°13.598 2°56.095 -999 -999 -999 -999 -999
2007-06-14 07:18 51°13.602 2°56.072 -999 -999 -999 -999 -999
2007-06-14 07:19 51°13.603 2°56.068 -999 -999 -999 -999 -999
2007-06-14 07:20 51°13.576 2°56.118 -999 -999 -999 -999 -999
2007-06-14 07:21 51°13.537 2°56.185 -999 -999 -999 -999 -999
2007-06-14 07:22 51°13.521 2°56.27 -999 -999 -999 -999 -999
2007-06-14 07:23 51°13.529 2°56.296 -999 -999 -999 -999 -999
2007-06-14 07:24 51°13.534 2°56.293 -999 -999 -999 -999 -999
2007-06-14 07:25 51°13.527 2°56.294 -999 -999 -999 -999 -999
2007-06-14 07:26 51°13.504 2°56.304 -999 -999 -999 -999 -999
2007-06-14 07:27 51°13.522 2°56.261 -999 -999 -999 -999 -999
2007-06-14 07:28 51°13.552 2°56.171 -999 -999 -999 -999 -999
2007-06-14 07:29 51°13.587 2°56.071 -999 -999 -999 -999 -999
2007-06-14 07:30 51°13.635 2°55.954 -999 -999 -999 -999 -999
2007-06-14 07:31 51°13.699 2°55.812 -999 -999 -999 -999 -999
2007-06-14 07:32 51°13.788 2°55.675 -999 -999 -999 -999 -999
2007-06-14 07:33 51°13.91 2°55.577 -999 -999 -999 -999 -999
2007-06-14 07:34 51°14.037 2°55.487 -999 -999 -999 -999 -999
2007-06-14 07:35 51°14.182 2°55.373 -999 -999 -999 -999 -999
2007-06-14 07:36 51°14.309 2°55.19 -999 -999 -999 -999 -999
2007-06-14 07:37 51°14.443 2°54.957 -999 -999 -999 -999 -999
2007-06-14 07:38 51°14.634 2°54.812 -999 -999 -999 -999 -999
2007-06-14 07:39 51°14.841 2°54.787 -999 -999 -999 -999 -999
2007-06-14 07:40 51°15.041 2°54.868 -999 -999 -999 -999 -999
2007-06-14 07:41 51°15.236 2°54.95 -999 -999 -999 -999 -999
2007-06-14 07:42 51°15.431 2°55.028 -999 -999 -999 -999 -999
2007-06-14 07:43 51°15.624 2°55.137 -999 -999 -999 -999 -999
2007-06-14 07:44 51°15.767 2°55.367 -999 -999 -999 -999 -999
2007-06-14 07:45 51°15.885 2°55.632 -999 -999 -999 -999 -999
2007-06-14 07:46 51°16.002 2°55.9 -999 -999 -999 -999 -999
2007-06-14 07:47 51°16.118 2°56.167 -999 -999 -999 -999 -999
2007-06-14 07:48 51°16.234 2°56.433 -999 -999 -999 -999 -999
2007-06-14 07:49 51°16.353 2°56.697 -999 -999 -999 -999 -999
2007-06-14 07:50 51°16.471 2°56.96 -999 -999 -999 -999 -999
2007-06-14 07:51 51°16.59 2°57.222 -999 -999 -999 -999 -999
2007-06-14 07:52 51°16.708 2°57.486 -999 -999 -999 -999 -999
2007-06-14 07:53 51°16.827 2°57.748 -999 -999 -999 -999 -999
2007-06-14 07:54 51°16.942 2°58.015 -999 -999 -999 -999 -999
2007-06-14 07:55 51°17.059 2°58.282 -999 -999 -999 -999 -999
2007-06-14 07:56 51°17.17 2°58.554 -999 -999 -999 -999 -999
2007-06-14 07:57 51°17.274 2°58.833 -999 -999 -999 -999 -999
2007-06-14 07:58 51°17.38 2°59.111 -999 -999 -999 -999 -999
2007-06-14 07:59 51°17.485 2°59.39 -999 -999 -999 -999 -999
2007-06-14 08:00 51°17.593 2°59.667 -999 -999 -999 -999 -999
2007-06-14 08:01 51°17.697 2°59.945 -999 -999 -999 -999 -999
2007-06-14 08:02 51°17.805 3°0.22 -999 -999 -999 -999 -999
2007-06-14 08:03 51°17.906 3°0.499 -999 -999 -999 -999 -999
2007-06-14 08:04 51°18.011 3°0.775 -999 -999 -999 -999 -999
2007-06-14 08:05 51°18.12 3°1.045 -999 -999 -999 -999 -999
2007-06-14 08:06 51°18.226 3°1.321 -999 -999 -999 -999 -999
2007-06-14 08:07 51°18.329 3°1.603 -999 -999 -999 -999 -999
2007-06-14 08:08 51°18.462 3°1.843 -999 -999 -999 -999 -999
2007-06-14 08:09 51°18.634 3°2.003 -999 -999 -999 -999 -999
2007-06-14 08:10 51°18.807 3°2.168 -999 -999 -999 -999 -999
2007-06-14 08:11 51°18.987 3°2.317 -999 -999 -999 -999 -999
2007-06-14 08:12 51°19.171 3°2.453 -999 -999 -999 -999 -999
2007-06-14 08:13 51°19.354 3°2.586 -999 -999 -999 -999 -999
2007-06-14 08:14 51°19.536 3°2.72 -999 -999 -999 -999 -999
2007-06-14 08:15 51°19.723 3°2.829 -999 -999 -999 -999 -999
2007-06-14 08:16 51°19.898 3°2.97 -999 -999 -999 -999 -999
2007-06-14 08:17 51°20.081 3°3.069 -999 -999 -999 -999 -999
2007-06-14 08:18 51°20.256 3°3.212 -999 -999 -999 -999 -999
2007-06-14 08:19 51°20.444 3°3.328 -999 -999 -999 -999 -999
2007-06-14 08:20 51°20.63 3°3.459 -999 -999 -999 -999 -999
2007-06-14 08:21 51°20.817 3°3.59 -999 -999 -999 -999 -999
2007-06-14 08:22 51°21 3°3.733 -999 -999 -999 -999 -999
2007-06-14 08:23 51°21.181 3°3.882 -999 -999 -999 -999 -999
2007-06-14 08:24 51°21.362 3°4.033 -999 -999 -999 -999 -999
2007-06-14 08:25 51°21.543 3°4.184 -999 -999 -999 -999 -999
2007-06-14 08:26 51°21.725 3°4.336 -999 -999 -999 -999 -999
2007-06-14 08:27 51°21.903 3°4.498 -999 -999 -999 -999 -999
2007-06-14 08:28 51°22.079 3°4.667 -999 -999 -999 -999 -999
2007-06-14 08:29 51°22.253 3°4.835 -999 -999 -999 -999 -999
2007-06-14 08:30 51°22.408 3°4.989 -999 -999 -999 -999 -999
2007-06-14 08:31 51°22.501 3°5.086 -999 -999 -999 -999 -999
2007-06-14 08:32 51°22.533 3°5.155 -999 -999 -999 -999 -999
2007-06-14 08:33 51°22.535 3°5.192 -999 -999 -999 -999 -999
2007-06-14 08:34 51°22.526 3°5.211 -999 -999 -999 -999 -999
2007-06-14 08:35 51°22.516 3°5.225 -999 -999 -999 -999 -999
2007-06-14 08:36 51°22.505 3°5.235 -999 -999 -999 -999 -999
2007-06-14 08:37 51°22.495 3°5.243 -999 -999 -999 -999 -999
2007-06-14 08:38 51°22.484 3°5.249 -999 -999 -999 -999 -999
2007-06-14 08:39 51°22.473 3°5.254 -999 -999 -999 -999 -999
2007-06-14 08:40 51°22.463 3°5.258 -999 -999 -999 -999 -999
2007-06-14 08:41 51°22.453 3°5.262 -999 -999 -999 -999 -999
2007-06-14 08:42 51°22.442 3°5.265 -999 -999 -999 -999 -999
2007-06-14 08:43 51°22.43 3°5.266 -999 -999 -999 -999 -999
2007-06-14 08:44 51°22.419 3°5.267 -999 -999 -999 -999 -999
2007-06-14 08:45 51°22.407 3°5.268 -999 -999 -999 -999 -999
2007-06-14 08:46 51°22.394 3°5.268 -999 -999 -999 -999 -999
2007-06-14 08:47 51°22.382 3°5.268 -999 -999 -999 -999 -999
2007-06-14 08:48 51°22.369 3°5.268 -999 -999 -999 -999 -999
2007-06-14 08:49 51°22.356 3°5.267 -999 -999 -999 -999 -999
2007-06-14 08:50 51°22.342 3°5.266 -999 -999 -999 -999 -999
2007-06-14 08:51 51°22.329 3°5.265 -999 -999 -999 -999 -999
2007-06-14 08:52 51°22.315 3°5.263 -999 -999 -999 -999 -999
2007-06-14 08:53 51°22.301 3°5.26 -999 -999 -999 -999 -999
2007-06-14 08:54 51°22.278 3°5.258 -999 -999 -999 -999 -999
2007-06-14 08:55 51°22.222 3°5.236 -999 -999 -999 -999 -999
2007-06-14 08:56 51°22.168 3°5.215 -999 -999 -999 -999 -999
2007-06-14 08:57 51°22.114 3°5.191 -999 -999 -999 -999 -999
2007-06-14 08:58 51°22.064 3°5.161 -999 -999 -999 -999 -999
2007-06-14 08:59 51°22.009 3°5.119 -999 -999 -999 -999 -999
2007-06-14 09:00 51°21.963 3°5.046 -999 -999 -999 -999 -999
2007-06-14 09:01 51°21.93 3°4.963 -999 -999 -999 -999 -999
2007-06-14 09:02 51°21.901 3°4.882 -999 -999 -999 -999 -999
2007-06-14 09:03 51°21.873 3°4.803 -999 -999 -999 -999 -999
2007-06-14 09:04 51°21.851 3°4.722 -999 -999 -999 -999 -999
2007-06-14 09:05 51°21.832 3°4.64 -999 -999 -999 -999 -999
2007-06-14 09:06 51°21.816 3°4.557 -999 -999 -999 -999 -999
2007-06-14 09:07 51°21.798 3°4.475 -999 -999 -999 -999 -999
2007-06-14 09:08 51°21.778 3°4.394 -999 -999 -999 -999 -999
2007-06-14 09:09 51°21.756 3°4.314 -999 -999 -999 -999 -999
2007-06-14 09:10 51°21.733 3°4.235 -999 -999 -999 -999 -999
2007-06-14 09:11 51°21.707 3°4.158 -999 -999 -999 -999 -999
2007-06-14 09:12 51°21.68 3°4.084 -999 -999 -999 -999 -999
2007-06-14 09:13 51°21.65 3°4.011 -999 -999 -999 -999 -999
2007-06-14 09:14 51°21.62 3°3.943 -999 -999 -999 -999 -999
2007-06-14 09:15 51°21.587 3°3.872 -999 -999 -999 -999 -999
2007-06-14 09:16 51°21.559 3°3.803 -999 -999 -999 -999 -999
2007-06-14 09:17 51°21.534 3°3.731 -999 -999 -999 -999 -999
2007-06-14 09:18 51°21.513 3°3.657 -999 -999 -999 -999 -999
2007-06-14 09:19 51°21.5 3°3.582 -999 -999 -999 -999 -999
2007-06-14 09:20 51°21.49 3°3.506 -999 -999 -999 -999 -999
2007-06-14 09:21 51°21.49 3°3.437 -999 -999 -999 -999 -999
2007-06-14 09:22 51°21.513 3°3.397 -999 -999 -999 -999 -999
2007-06-14 09:23 51°21.531 3°3.381 -999 -999 -999 -999 -999
2007-06-14 09:24 51°21.546 3°3.372 -999 -999 -999 -999 -999
2007-06-14 09:25 51°21.567 3°3.367 -999 -999 -999 -999 -999
2007-06-14 09:26 51°21.615 3°3.438 -999 -999 -999 -999 -999
2007-06-14 09:27 51°21.65 3°3.534 -999 -999 -999 -999 -999
2007-06-14 09:28 51°21.676 3°3.632 -999 -999 -999 -999 -999
2007-06-14 09:29 51°21.703 3°3.714 -999 -999 -999 -999 -999
2007-06-14 09:30 51°21.772 3°3.885 -999 -999 -999 -999 -999
2007-06-14 09:31 51°21.873 3°4.103 -999 -999 -999 -999 -999
2007-06-14 09:32 51°21.975 3°4.307 -999 -999 -999 -999 -999
2007-06-14 09:33 51°22.051 3°4.466 -999 -999 -999 -999 -999
2007-06-14 09:34 51°22.104 3°4.564 -999 -999 -999 -999 -999
2007-06-14 09:35 51°22.138 3°4.617 -999 -999 -999 -999 -999
2007-06-14 09:36 51°22.164 3°4.654 -999 -999 -999 -999 -999
2007-06-14 09:37 51°22.184 3°4.685 -999 -999 -999 -999 -999
2007-06-14 09:38 51°22.203 3°4.714 -999 -999 -999 -999 -999
2007-06-14 09:39 51°22.234 3°4.797 -999 -999 -999 -999 -999
2007-06-14 09:40 51°22.276 3°5.013 -999 -999 -999 -999 -999
2007-06-14 09:41 51°22.315 3°5.341 -999 -999 -999 -999 -999
2007-06-14 09:42 51°22.36 3°5.71 -999 -999 -999 -999 -999
2007-06-14 09:43 51°22.407 3°6.081 -999 -999 -999 -999 -999
2007-06-14 09:44 51°22.461 3°6.45 -999 -999 -999 -999 -999
2007-06-14 09:45 51°22.515 3°6.821 -999 -999 -999 -999 -999
2007-06-14 09:46 51°22.568 3°7.195 -999 -999 -999 -999 -999
2007-06-14 09:47 51°22.622 3°7.571 -999 -999 -999 -999 -999
2007-06-14 09:48 51°22.673 3°7.952 -999 -999 -999 -999 -999
2007-06-14 09:49 51°22.775 3°8.309 -999 -999 -999 -999 -999
2007-06-14 09:50 51°22.874 3°8.657 -999 -999 -999 -999 -999
2007-06-14 09:51 51°22.975 3°9.015 -999 -999 -999 -999 -999
2007-06-14 09:52 51°23.075 3°9.375 -999 -999 -999 -999 -999
2007-06-14 09:53 51°23.169 3°9.736 -999 -999 -999 -999 -999
2007-06-14 09:54 51°23.264 3°10.096 -999 -999 -999 -999 -999
2007-06-14 09:55 51°23.364 3°10.473 -999 -999 -999 -999 -999
2007-06-14 09:56 51°23.46 3°10.835 -999 -999 -999 -999 -999
2007-06-14 09:57 51°23.559 3°11.21 -999 -999 -999 -999 -999
2007-06-14 09:58 51°23.659 3°11.579 -999 -999 -999 -999 -999
2007-06-14 09:59 51°23.757 3°11.944 -999 -999 -999 -999 -999
2007-06-14 10:00 51°23.855 3°12.317 -999 -999 -999 -999 -999
2007-06-14 10:01 51°23.952 3°12.693 -999 -999 -999 -999 -999
2007-06-14 10:02 51°24.047 3°13.072 -999 -999 -999 -999 -999
2007-06-14 10:03 51°24.143 3°13.453 -999 -999 -999 -999 -999
2007-06-14 10:04 51°24.239 3°13.837 -999 -999 -999 -999 -999
2007-06-14 10:05 51°24.339 3°14.229 -999 -999 -999 -999 -999
2007-06-14 10:06 51°24.436 3°14.612 -999 -999 -999 -999 -999
2007-06-14 10:07 51°24.526 3°15.016 -999 -999 -999 -999 -999
2007-06-14 10:08 51°24.542 3°15.422 -999 -999 -999 -999 -999
2007-06-14 10:09 51°24.491 3°15.841 -999 -999 -999 -999 -999
2007-06-14 10:10 51°24.459 3°16.255 -999 -999 -999 -999 -999
2007-06-14 10:11 51°24.428 3°16.685 -999 -999 -999 -999 -999
2007-06-14 10:12 51°24.399 3°17.102 -999 -999 -999 -999 -999
2007-06-14 10:13 51°24.368 3°17.527 -999 -999 -999 -999 -999
2007-06-14 10:14 51°24.341 3°17.955 -999 -999 -999 -999 -999
2007-06-14 10:15 51°24.317 3°18.384 -999 -999 -999 -999 -999
2007-06-14 10:16 51°24.28 3°18.818 -999 -999 -999 -999 -999
2007-06-14 10:17 51°24.239 3°19.233 -999 -999 -999 -999 -999
2007-06-14 10:18 51°24.198 3°19.654 -999 -999 -999 -999 -999
2007-06-14 10:19 51°24.162 3°20.074 -999 -999 -999 -999 -999
2007-06-14 10:20 51°24.137 3°20.496 -999 -999 -999 -999 -999
2007-06-14 10:21 51°24.12 3°20.929 -999 -999 -999 -999 -999
2007-06-14 10:22 51°24.119 3°21.348 -999 -999 -999 -999 -999
2007-06-14 10:23 51°24.153 3°21.781 -999 -999 -999 -999 -999
2007-06-14 10:24 51°24.194 3°22.2 -999 -999 -999 -999 -999
2007-06-14 10:25 51°24.235 3°22.634 -999 -999 -999 -999 -999
2007-06-14 10:26 51°24.282 3°23.052 -999 -999 -999 -999 -999
2007-06-14 10:27 51°24.331 3°23.485 -999 -999 -999 -999 -999
2007-06-14 10:28 51°24.378 3°23.904 -999 -999 -999 -999 -999
2007-06-14 10:29 51°24.428 3°24.337 -999 -999 -999 -999 -999
2007-06-14 10:30 51°24.474 3°24.756 -999 -999 -999 -999 -999
2007-06-14 10:31 51°24.521 3°25.186 -999 -999 -999 -999 -999
2007-06-14 10:32 51°24.57 3°25.623 -999 -999 -999 -999 -999
2007-06-14 10:33 51°24.615 3°26.045 -999 -999 -999 -999 -999
2007-06-14 10:34 51°24.663 3°26.483 -999 -999 -999 -999 -999
2007-06-14 10:35 51°24.708 3°26.907 -999 -999 -999 -999 -999
2007-06-14 10:36 51°24.753 3°27.338 -999 -999 -999 -999 -999
2007-06-14 10:37 51°24.799 3°27.77 -999 -999 -999 -999 -999
2007-06-14 10:38 51°24.843 3°28.206 -999 -999 -999 -999 -999
2007-06-14 10:39 51°24.889 3°28.651 -999 -999 -999 -999 -999
2007-06-14 10:40 51°24.939 3°29.082 -999 -999 -999 -999 -999
2007-06-14 10:41 51°25.011 3°29.515 -999 -999 -999 -999 -999
2007-06-14 10:42 51°25.077 3°29.932 -999 -999 -999 -999 -999
2007-06-14 10:43 51°25.145 3°30.365 -999 -999 -999 -999 -999
2007-06-14 10:44 51°25.203 3°30.79 -999 -999 -999 -999 -999
2007-06-14 10:45 51°25.254 3°31.238 -999 -999 -999 -999 -999
2007-06-14 10:46 51°25.298 3°31.674 -999 -999 -999 -999 -999
2007-06-14 10:47 51°25.308 3°32.138 -999 -999 -999 -999 -999
2007-06-14 10:48 51°25.31 3°32.595 -999 -999 -999 -999 -999
2007-06-14 10:49 51°25.304 3°33.044 -999 -999 -999 -999 -999
2007-06-14 10:50 51°25.286 3°33.441 -999 -999 -999 -999 -999
2007-06-14 10:51 51°25.28 3°33.699 -999 -999 -999 -999 -999
2007-06-14 10:52 51°25.281 3°33.911 -999 -999 -999 -999 -999
2007-06-14 10:53 51°25.28 3°34.089 -999 -999 -999 -999 -999
2007-06-14 10:54 51°25.264 3°34.241 -999 -999 -999 -999 -999
2007-06-14 10:55 51°25.235 3°34.374 -999 -999 -999 -999 -999
2007-06-14 10:56 51°25.185 3°34.473 -999 -999 -999 -999 -999
2007-06-14 10:57 51°25.151 3°34.501 -999 -999 -999 -999 -999
2007-06-14 10:58 51°25.122 3°34.489 -999 -999 -999 -999 -999
2007-06-14 10:59 51°25.087 3°34.446 -999 -999 -999 -999 -999
2007-06-14 11:00 51°25.051 3°34.356 -999 -999 -999 -999 -999
2007-06-14 11:01 51°25.022 3°34.313 -999 -999 -999 -999 -999
2007-06-14 11:02 51°25.01 3°34.281 -999 -999 -999 -999 -999
2007-06-14 11:03 51°25 3°34.223 -999 -999 -999 -999 -999
2007-06-14 11:04 51°24.985 3°34.179 -999 -999 -999 -999 -999
2007-06-14 11:05 51°24.999 3°34.213 -999 -999 -999 -999 -999
2007-06-14 11:06 51°25.016 3°34.272 -999 -999 -999 -999 -999
2007-06-14 11:07 51°25.033 3°34.351 -999 -999 -999 -999 -999
2007-06-14 11:08 51°25.05 3°34.444 -999 -999 -999 -999 -999
2007-06-14 11:09 51°25.065 3°34.541 -999 -999 -999 -999 -999
2007-06-14 11:10 51°25.077 3°34.643 -999 -999 -999 -999 -999
2007-06-14 11:11 51°25.088 3°34.75 -999 -999 -999 -999 -999
2007-06-14 11:12 51°25.098 3°34.855 -999 -999 -999 -999 -999
2007-06-14 11:13 51°25.108 3°34.964 -999 -999 -999 -999 -999
2007-06-14 11:14 51°25.126 3°35.069 -999 -999 -999 -999 -999
2007-06-14 11:15 51°25.149 3°35.075 -999 -999 -999 -999 -999
2007-06-14 11:16 51°25.105 3°35.006 -999 -999 -999 -999 -999
2007-06-14 11:17 51°25.084 3°34.898 -999 -999 -999 -999 -999
2007-06-14 11:18 51°25.061 3°34.761 -999 -999 -999 -999 -999
2007-06-14 11:19 51°25.035 3°34.568 -999 -999 -999 -999 -999
2007-06-14 11:20 51°25.012 3°34.389 -999 -999 -999 -999 -999
2007-06-14 11:21 51°25.004 3°34.268 -999 -999 -999 -999 -999
2007-06-14 11:22 51°24.994 3°34.231 -999 -999 -999 -999 -999
2007-06-14 11:23 51°24.997 3°34.213 -999 -999 -999 -999 -999
2007-06-14 11:24 51°25.005 3°34.22 -999 -999 -999 -999 -999
2007-06-14 11:25 51°25.014 3°34.264 -999 -999 -999 -999 -999
2007-06-14 11:26 51°25.016 3°34.35 -999 -999 -999 -999 -999
2007-06-14 11:27 51°25.007 3°34.451 -999 -999 -999 -999 -999
2007-06-14 11:28 51°24.999 3°34.557 -999 -999 -999 -999 -999
2007-06-14 11:29 51°24.999 3°34.602 -999 -999 -999 -999 -999
2007-06-14 11:30 51°24.986 3°34.494 -999 -999 -999 -999 -999
2007-06-14 11:31 51°24.978 3°34.347 -999 -999 -999 -999 -999
2007-06-14 11:32 51°24.984 3°34.269 -999 -999 -999 -999 -999
2007-06-14 11:33 51°24.993 3°34.212 -999 -999 -999 -999 -999
2007-06-14 11:34 51°25.024 3°34.197 -999 -999 -999 -999 -999
2007-06-14 11:35 51°25.037 3°34.273 -999 -999 -999 -999 -999
2007-06-14 11:36 51°25.048 3°34.355 -999 -999 -999 -999 -999
2007-06-14 11:37 51°25.057 3°34.445 -999 -999 -999 -999 -999
2007-06-14 11:38 51°25.063 3°34.535 -999 -999 -999 -999 -999
2007-06-14 11:39 51°25.068 3°34.625 -999 -999 -999 -999 -999
2007-06-14 11:40 51°25.078 3°34.715 -999 -999 -999 -999 -999
2007-06-14 11:41 51°25.104 3°34.73 -999 -999 -999 -999 -999
2007-06-14 11:42 51°25.08 3°34.645 -999 -999 -999 -999 -999
2007-06-14 11:43 51°25.052 3°34.527 -999 -999 -999 -999 -999
2007-06-14 11:44 51°25.019 3°34.402 -999 -999 -999 -999 -999
2007-06-14 11:45 51°24.999 3°34.269 -999 -999 -999 -999 -999
2007-06-14 11:46 51°24.97 3°34.182 -999 -999 -999 -999 -999
2007-06-14 11:47 51°24.976 3°34.155 -999 -999 -999 -999 -999
2007-06-14 11:48 51°24.985 3°34.159 -999 -999 -999 -999 -999
2007-06-14 11:49 51°24.993 3°34.177 -999 -999 -999 -999 -999
2007-06-14 11:50 51°24.997 3°34.197 -999 -999 -999 -999 -999
2007-06-14 11:51 51°24.998 3°34.205 -999 -999 -999 -999 -999
2007-06-14 11:52 51°25.004 3°34.205 -999 -999 -999 -999 -999
2007-06-14 11:53 51°25.014 3°34.203 -999 -999 -999 -999 -999
2007-06-14 11:54 51°25.02 3°34.2 -999 -999 -999 -999 -999
2007-06-14 11:55 51°25.02 3°34.196 -999 -999 -999 -999 -999
2007-06-14 11:56 51°25.024 3°34.19 -999 -999 -999 -999 -999
2007-06-14 11:57 51°25.032 3°34.187 -999 -999 -999 -999 -999
2007-06-14 11:58 51°25.043 3°34.187 -999 -999 -999 -999 -999
2007-06-14 11:59 51°25.057 3°34.19 -999 -999 -999 -999 -999
2007-06-14 12:00 51°25.069 3°34.194 -999 -999 -999 -999 -999
2007-06-14 12:01 51°25.074 3°34.2 -999 -999 -999 -999 -999
2007-06-14 12:02 51°25.071 3°34.207 -999 -999 -999 -999 -999
2007-06-14 12:03 51°25.059 3°34.218 -999 -999 -999 -999 -999
2007-06-14 12:04 51°25.047 3°34.226 -999 -999 -999 -999 -999
2007-06-14 12:05 51°25.038 3°34.229 -999 -999 -999 -999 -999
2007-06-14 12:06 51°25.031 3°34.228 -999 -999 -999 -999 -999
2007-06-14 12:07 51°25.015 3°34.207 -999 -999 -999 -999 -999
2007-06-14 12:08 51°24.996 3°34.167 -999 -999 -999 -999 -999
2007-06-14 12:09 51°24.981 3°34.129 -999 -999 -999 -999 -999
2007-06-14 12:10 51°24.972 3°34.093 -999 -999 -999 -999 -999
2007-06-14 12:11 51°24.963 3°34.057 -999 -999 -999 -999 -999
2007-06-14 12:12 51°24.953 3°34.018 -999 -999 -999 -999 -999
2007-06-14 12:13 51°24.939 3°33.978 -999 -999 -999 -999 -999
2007-06-14 12:14 51°24.931 3°33.933 -999 -999 -999 -999 -999
2007-06-14 12:15 51°24.927 3°33.888 -999 -999 -999 -999 -999
2007-06-14 12:16 51°24.918 3°33.845 -999 -999 -999 -999 -999
2007-06-14 12:17 51°24.905 3°33.805 -999 -999 -999 -999 -999
2007-06-14 12:18 51°24.897 3°33.77 -999 -999 -999 -999 -999
2007-06-14 12:19 51°24.894 3°33.739 -999 -999 -999 -999 -999
2007-06-14 12:20 51°24.897 3°33.706 -999 -999 -999 -999 -999
2007-06-14 12:21 51°24.906 3°33.674 -999 -999 -999 -999 -999
2007-06-14 12:22 51°24.924 3°33.645 -999 -999 -999 -999 -999
2007-06-14 12:23 51°24.948 3°33.62 -999 -999 -999 -999 -999
2007-06-14 12:24 51°24.963 3°33.591 -999 -999 -999 -999 -999
2007-06-14 12:25 51°24.963 3°33.556 -999 -999 -999 -999 -999
2007-06-14 12:26 51°24.947 3°33.525 -999 -999 -999 -999 -999
2007-06-14 12:27 51°24.924 3°33.494 -999 -999 -999 -999 -999
2007-06-14 12:28 51°24.901 3°33.462 -999 -999 -999 -999 -999
2007-06-14 12:29 51°24.895 3°33.422 -999 -999 -999 -999 -999
2007-06-14 12:30 51°24.897 3°33.381 -999 -999 -999 -999 -999
2007-06-14 12:31 51°24.896 3°33.337 -999 -999 -999 -999 -999
2007-06-14 12:32 51°24.888 3°33.292 -999 -999 -999 -999 -999
2007-06-14 12:33 51°24.893 3°33.244 -999 -999 -999 -999 -999
2007-06-14 12:34 51°24.936 3°33.244 -999 -999 -999 -999 -999
2007-06-14 12:35 51°24.972 3°33.313 -999 -999 -999 -999 -999
2007-06-14 12:36 51°24.987 3°33.411 -999 -999 -999 -999 -999
2007-06-14 12:37 51°24.996 3°33.514 -999 -999 -999 -999 -999
2007-06-14 12:38 51°25 3°33.602 -999 -999 -999 -999 -999
2007-06-14 12:39 51°24.999 3°33.675 -999 -999 -999 -999 -999
2007-06-14 12:40 51°24.997 3°33.742 -999 -999 -999 -999 -999
2007-06-14 12:41 51°24.999 3°33.821 -999 -999 -999 -999 -999
2007-06-14 12:42 51°25.003 3°33.912 -999 -999 -999 -999 -999
2007-06-14 12:43 51°25 3°34.008 -999 -999 -999 -999 -999
2007-06-14 12:44 51°24.99 3°34.095 -999 -999 -999 -999 -999
2007-06-14 12:45 51°24.981 3°34.18 -999 -999 -999 -999 -999
2007-06-14 12:46 51°24.978 3°34.266 -999 -999 -999 -999 -999
2007-06-14 12:47 51°24.978 3°34.352 -999 -999 -999 -999 -999
2007-06-14 12:48 51°24.979 3°34.437 -999 -999 -999 -999 -999
2007-06-14 12:49 51°24.975 3°34.518 -999 -999 -999 -999 -999
2007-06-14 12:50 51°24.971 3°34.603 -999 -999 -999 -999 -999
2007-06-14 12:51 51°24.972 3°34.695 -999 -999 -999 -999 -999
2007-06-14 12:52 51°24.982 3°34.784 -999 -999 -999 -999 -999
2007-06-14 12:53 51°24.997 3°34.847 -999 -999 -999 -999 -999
2007-06-14 12:54 51°25.014 3°34.899 -999 -999 -999 -999 -999
2007-06-14 12:55 51°25.024 3°35.032 -999 -999 -999 -999 -999
2007-06-14 12:56 51°25.045 3°35.147 -999 -999 -999 -999 -999
2007-06-14 12:57 51°25.025 3°35.258 -999 -999 -999 -999 -999
2007-06-14 12:58 51°24.959 3°35.22 -999 -999 -999 -999 -999
2007-06-14 12:59 51°24.945 3°35.124 -999 -999 -999 -999 -999
2007-06-14 13:00 51°24.935 3°35.033 -999 -999 -999 -999 -999
2007-06-14 13:01 51°24.933 3°34.944 -999 -999 -999 -999 -999
2007-06-14 13:02 51°24.939 3°34.873 -999 -999 -999 -999 -999
2007-06-14 13:03 51°24.949 3°34.822 -999 -999 -999 -999 -999
2007-06-14 13:04 51°24.956 3°34.779 -999 -999 -999 -999 -999
2007-06-14 13:05 51°24.957 3°34.735 -999 -999 -999 -999 -999
2007-06-14 13:06 51°24.954 3°34.689 -999 -999 -999 -999 -999
2007-06-14 13:07 51°24.949 3°34.641 -999 -999 -999 -999 -999
2007-06-14 13:08 51°24.943 3°34.592 -999 -999 -999 -999 -999
2007-06-14 13:09 51°24.936 3°34.542 -999 -999 -999 -999 -999
2007-06-14 13:10 51°24.932 3°34.49 -999 -999 -999 -999 -999
2007-06-14 13:11 51°24.932 3°34.437 -999 -999 -999 -999 -999
2007-06-14 13:12 51°24.936 3°34.383 -999 -999 -999 -999 -999
2007-06-14 13:13 51°24.937 3°34.329 -999 -999 -999 -999 -999
2007-06-14 13:14 51°24.935 3°34.274 -999 -999 -999 -999 -999
2007-06-14 13:15 51°24.927 3°34.219 -999 -999 -999 -999 -999
2007-06-14 13:16 51°24.915 3°34.166 -999 -999 -999 -999 -999
2007-06-14 13:17 51°24.903 3°34.111 -999 -999 -999 -999 -999
2007-06-14 13:18 51°24.894 3°34.053 -999 -999 -999 -999 -999
2007-06-14 13:19 51°24.896 3°33.995 -999 -999 -999 -999 -999
2007-06-14 13:20 51°24.906 3°33.94 -999 -999 -999 -999 -999
2007-06-14 13:21 51°24.919 3°33.886 -999 -999 -999 -999 -999
2007-06-14 13:22 51°24.934 3°33.833 -999 -999 -999 -999 -999
2007-06-14 13:23 51°24.948 3°33.787 -999 -999 -999 -999 -999
2007-06-14 13:24 51°24.961 3°33.751 -999 -999 -999 -999 -999
2007-06-14 13:25 51°24.974 3°33.725 -999 -999 -999 -999 -999
2007-06-14 13:26 51°24.986 3°33.706 -999 -999 -999 -999 -999
2007-06-14 13:27 51°24.996 3°33.692 -999 -999 -999 -999 -999
2007-06-14 13:28 51°25.004 3°33.682 -999 -999 -999 -999 -999
2007-06-14 13:29 51°25.011 3°33.674 -999 -999 -999 -999 -999
2007-06-14 13:30 51°25.016 3°33.669 -999 -999 -999 -999 -999
2007-06-14 13:31 51°25.023 3°33.664 -999 -999 -999 -999 -999
2007-06-14 13:32 51°25.059 3°33.701 -999 -999 -999 -999 -999
2007-06-14 13:33 51°25.203 3°33.871 -999 -999 -999 -999 -999
2007-06-14 13:34 51°25.41 3°33.835 -999 -999 -999 -999 -999
2007-06-14 13:35 51°25.56 3°33.583 -999 -999 -999 -999 -999
2007-06-14 13:36 51°25.581 3°33.244 -999 -999 -999 -999 -999
2007-06-14 13:37 51°25.565 3°32.896 -999 -999 -999 -999 -999
2007-06-14 13:38 51°25.537 3°32.547 -999 -999 -999 -999 -999
2007-06-14 13:39 51°25.508 3°32.19 -999 -999 -999 -999 -999
2007-06-14 13:40 51°25.478 3°31.828 -999 -999 -999 -999 -999
2007-06-14 13:41 51°25.45 3°31.465 -999 -999 -999 -999 -999
2007-06-14 13:42 51°25.425 3°31.104 -999 -999 -999 -999 -999
2007-06-14 13:43 51°25.403 3°30.746 -999 -999 -999 -999 -999
2007-06-14 13:44 51°25.38 3°30.397 -999 -999 -999 -999 -999
2007-06-14 13:45 51°25.339 3°30.037 -999 -999 -999 -999 -999
2007-06-14 13:46 51°25.298 3°29.69 -999 -999 -999 -999 -999
2007-06-14 13:47 51°25.261 3°29.351 -999 -999 -999 -999 -999
2007-06-14 13:48 51°25.213 3°29.02 -999 -999 -999 -999 -999
2007-06-14 13:49 51°25.166 3°28.688 -999 -999 -999 -999 -999
2007-06-14 13:50 51°25.113 3°28.347 -999 -999 -999 -999 -999
2007-06-14 13:51 51°25.089 3°28.004 -999 -999 -999 -999 -999
2007-06-14 13:52 51°25.077 3°27.663 -999 -999 -999 -999 -999
2007-06-14 13:53 51°25.065 3°27.323 -999 -999 -999 -999 -999
2007-06-14 13:54 51°25.079 3°26.982 -999 -999 -999 -999 -999
2007-06-14 13:55 51°25.113 3°26.642 -999 -999 -999 -999 -999
2007-06-14 13:56 51°25.141 3°26.3 -999 -999 -999 -999 -999
2007-06-14 13:57 51°25.182 3°25.952 -999 -999 -999 -999 -999
2007-06-14 13:58 51°25.243 3°25.604 -999 -999 -999 -999 -999
2007-06-14 13:59 51°25.304 3°25.254 -999 -999 -999 -999 -999
2007-06-14 14:00 51°25.365 3°24.904 -999 -999 -999 -999 -999
2007-06-14 14:01 51°25.416 3°24.551 -999 -999 -999 -999 -999
2007-06-14 14:02 51°25.453 3°24.197 -999 -999 -999 -999 -999
2007-06-14 14:03 51°25.493 3°23.844 -999 -999 -999 -999 -999
2007-06-14 14:04 51°25.532 3°23.489 -999 -999 -999 -999 -999
2007-06-14 14:05 51°25.571 3°23.134 -999 -999 -999 -999 -999
2007-06-14 14:06 51°25.612 3°22.779 -999 -999 -999 -999 -999
2007-06-14 14:07 51°25.653 3°22.425 -999 -999 -999 -999 -999
2007-06-14 14:08 51°25.689 3°22.073 -999 -999 -999 -999 -999
2007-06-14 14:09 51°25.715 3°21.718 -999 -999 -999 -999 -999
2007-06-14 14:10 51°25.733 3°21.362 -999 -999 -999 -999 -999
2007-06-14 14:11 51°25.726 3°21.004 -999 -999 -999 -999 -999
2007-06-14 14:12 51°25.719 3°20.651 -999 -999 -999 -999 -999
2007-06-14 14:13 51°25.714 3°20.3 -999 -999 -999 -999 -999
2007-06-14 14:14 51°25.719 3°20.04 -999 -999 -999 -999 -999
2007-06-14 14:15 51°25.746 3°19.92 -999 -999 -999 -999 -999
2007-06-14 14:16 51°25.758 3°19.846 -999 -999 -999 -999 -999
2007-06-14 14:17 51°25.747 3°19.797 -999 -999 -999 -999 -999
2007-06-14 14:18 51°25.713 3°19.717 -999 -999 -999 -999 -999
2007-06-14 14:19 51°25.686 3°19.621 -999 -999 -999 -999 -999
2007-06-14 14:20 51°25.679 3°19.518 -999 -999 -999 -999 -999
2007-06-14 14:21 51°25.672 3°19.425 -999 -999 -999 -999 -999
2007-06-14 14:22 51°25.661 3°19.349 -999 -999 -999 -999 -999
2007-06-14 14:23 51°25.649 3°19.278 -999 -999 -999 -999 -999
2007-06-14 14:24 51°25.644 3°19.205 -999 -999 -999 -999 -999
2007-06-14 14:25 51°25.641 3°19.128 -999 -999 -999 -999 -999
2007-06-14 14:26 51°25.638 3°19.05 -999 -999 -999 -999 -999
2007-06-14 14:27 51°25.631 3°18.974 -999 -999 -999 -999 -999
2007-06-14 14:28 51°25.623 3°18.899 -999 -999 -999 -999 -999
2007-06-14 14:29 51°25.616 3°18.814 -999 -999 -999 -999 -999
2007-06-14 14:30 51°25.618 3°18.724 -999 -999 -999 -999 -999
2007-06-14 14:32 51°25.61 3°18.569 -999 -999 -999 -999 -999
2007-06-14 14:35 51°25.59 3°18.351 -999 -999 -999 -999 -999
2007-06-14 14:36 51°25.603 3°18.217 -999 -999 -999 -999 -999
2007-06-14 14:38 51°25.606 3°18.146 -999 -999 -999 -999 -999
2007-06-14 14:39 51°25.608 3°18.085 -999 -999 -999 -999 -999
2007-06-14 14:41 51°25.611 3°17.967 -999 -999 -999 -999 -999
2007-06-14 14:43 51°25.531 3°17.406 -999 -999 -999 -999 -999
2007-06-14 14:45 51°25.416 3°16.703 -999 -999 -999 -999 -999
2007-06-14 14:48 51°25 3°15.898 -999 -999 -999 -999 -999
2007-06-14 14:51 51°25.082 3°14.81 -999 -999 -999 -999 -999
2007-06-14 14:52 51°25.017 3°14.433 -999 -999 -999 -999 -999
2007-06-14 14:58 51°24.666 3°12.393 -999 -999 -999 -999 -999
2007-06-14 14:59 51°24.604 3°12.044 -999 -999 -999 -999 -999
2007-06-14 15:00 51°24.543 3°11.697 -999 -999 -999 -999 -999
2007-06-14 15:01 51°24.474 3°11.354 -999 -999 -999 -999 -999
2007-06-14 15:02 51°24.4 3°11.014 -999 -999 -999 -999 -999
2007-06-14 15:03 51°24.342 3°10.667 -999 -999 -999 -999 -999
2007-06-14 15:04 51°24.296 3°10.314 -999 -999 -999 -999 -999
2007-06-14 15:05 51°24.25 3°9.96 -999 -999 -999 -999 -999
2007-06-14 15:06 51°24.204 3°9.607 -999 -999 -999 -999 -999
2007-06-14 15:07 51°24.158 3°9.253 -999 -999 -999 -999 -999
2007-06-14 15:08 51°24.111 3°8.898 -999 -999 -999 -999 -999
2007-06-14 15:09 51°24.059 3°8.515 -999 -999 -999 -999 -999
2007-06-14 15:10 51°24.013 3°8.161 -999 -999 -999 -999 -999
2007-06-14 15:11 51°23.956 3°7.749 -999 -999 -999 -999 -999
2007-06-14 15:12 51°23.893 3°7.3 -999 -999 -999 -999 -999
2007-06-14 15:13 51°23 3°7.063 -999 -999 -999 -999 -999
2007-06-14 15:14 51°23.619 3°6 -999 -999 -999 -999 -999
2007-06-14 15:15 51°23.475 3°6.438 -999 -999 -999 -999 -999
2007-06-14 15:16 51°23.355 3°6.144 -999 -999 -999 -999 -999
2007-06-14 15:18 51°23.221 3°5.824 -999 -999 -999 -999 -999
2007-06-14 15:19 51°23.099 3°5.528 -999 -999 -999 -999 -999
2007-06-14 15:20 51°22.929 3°5.106 -999 -999 -999 -999 -999
2007-06-14 15:21 51°22.759 3°4.687 -999 -999 -999 -999 -999